"Sample Date","Sample Time","Sample Value","Units","Flow Rate","Sample Interval","Number Channels","Micron Size 0","Counts/Channel 0","Micron Size 1","Counts/Channel 1","Micron Size 2","Counts/Channel 2","Micron Size 3","Counts/Channel 3","Micron Size 4","Counts/Channel 4","Micron Size 5","Counts/Channel 5","Micron Size 6","Counts/Channel 6","Micron Size 7","Counts/Channel 7","Micron Size 8","Counts/Channel 8","Micron Size 9","Counts/Channel 9","Micron Size 10","Counts/Channel 10","Micron Size 11","Counts/Channel 11","Micron Size 12","Counts/Channel 12","Micron Size 13","Counts/Channel 13","Micron Size 14","Counts/Channel 14","Micron Size 15","Counts/Channel 15","Micron Size 16","Counts/Channel 16","Micron Size 17","Counts/Channel 17","Micron Size 18","Counts/Channel 18","Micron Size 19","Counts/Channel 19","Micron Size 20","Counts/Channel 20","Micron Size 21","Counts/Channel 21","Micron Size 22","Counts/Channel 22","Micron Size 23","Counts/Channel 23","Micron Size 24","Counts/Channel 24","Micron Size 25","Counts/Channel 25","Micron Size 26","Counts/Channel 26","Micron Size 27","Counts/Channel 27","Micron Size 28","Counts/Channel 28","Micron Size 29","Counts/Channel 29","Micron Size 30","Counts/Channel 30","Micron Size 31","Counts/Channel 31"
"03/12/08","11:00:02",21833.000,"cc",28358.623,6.00,6,0.100,20597.000,0.200,942.000,0.300,256.000,0.500,35.000,1.000,3.000,5.000,0
"03/12/08","11:00:08",22249.000,"cc",28314.531,6.00,6,0.100,21040.000,0.200,973.000,0.300,226.000,0.500,10.000,1.000,0,5.000,0
"03/12/08","11:00:14",22180.000,"cc",28334.654,6.00,6,0.100,20990.000,0.200,930.000,0.300,235.000,0.500,25.000,1.000,0,5.000,0
"03/12/08","11:00:20",22065.000,"cc",28290.135,6.00,6,0.100,20874.000,0.200,951.000,0.300,221.000,0.500,19.000,1.000,0,5.000,0
"03/12/08","11:00:26",22188.000,"cc",28343.873,6.00,6,0.100,20810.000,0.200,1054.000,0.300,284.000,0.500,40.000,1.000,0,5.000,0
"03/12/08","11:00:32",22346.000,"cc",28299.301,6.00,6,0.100,21072.000,0.200,998.000,0.300,241.000,0.500,34.000,1.000,1.000,5.000,0
"03/12/08","11:00:38",22021.000,"cc",28323.111,6.00,6,0.100,20695.000,0.200,1023.000,0.300,267.000,0.500,33.000,1.000,3.000,5.000,0
"03/12/08","11:00:44",22368.000,"cc",28314.752,6.00,6,0.100,21014.000,0.200,1054.000,0.300,279.000,0.500,20.000,1.000,1.000,5.000,0
"03/12/08","11:00:50",22483.000,"cc",28315.045,6.00,6,0.100,21176.000,0.200,1017.000,0.300,266.000,0.500,23.000,1.000,1.000,5.000,0
"03/12/08","11:00:56",22573.000,"cc",28381.988,6.00,6,0.100,21272.000,0.200,995.000,0.300,275.000,0.500,30.000,1.000,1.000,5.000,0
"03/12/08","11:01:02",22095.000,"cc",28330.986,6.00,6,0.100,20845.000,0.200,986.000,0.300,241.000,0.500,23.000,1.000,0,5.000,0
"03/12/08","11:01:08",22350.000,"cc",28237.664,6.00,6,0.100,21063.000,0.200,1010.000,0.300,242.000,0.500,35.000,1.000,0,5.000,0
"03/12/08","11:01:14",22475.000,"cc",28313.383,6.00,6,0.100,21114.000,0.200,1045.000,0.300,292.000,0.500,24.000,1.000,0,5.000,0
"03/12/08","11:01:20",22641.000,"cc",28303.094,6.00,6,0.100,21335.000,0.200,1013.000,0.300,274.000,0.500,19.000,1.000,0,5.000,0
"03/12/08","11:01:26",22037.000,"cc",28370.955,6.00,6,0.100,20808.000,0.200,970.000,0.300,250.000,0.500,9.000,1.000,0,5.000,0
"03/12/08","11:01:32",22288.000,"cc",28244.656,6.00,6,0.100,20940.000,0.200,1013.000,0.300,296.000,0.500,38.000,1.000,1.000,5.000,0
"03/12/08","11:01:38",22832.000,"cc",28343.063,6.00,6,0.100,21546.000,0.200,986.000,0.300,277.000,0.500,19.000,1.000,4.000,5.000,0
"03/12/08","11:01:44",22480.000,"cc",28333.676,6.00,6,0.100,21019.000,0.200,1077.000,0.300,314.000,0.500,67.000,1.000,3.000,5.000,0
"03/12/08","11:01:50",22337.000,"cc",28273.695,6.00,6,0.100,20977.000,0.200,983.000,0.300,316.000,0.500,60.000,1.000,1.000,5.000,0
"03/12/08","11:01:56",22312.000,"cc",28410.867,6.00,6,0.100,21015.000,0.200,961.000,0.300,293.000,0.500,42.000,1.000,1.000,5.000,0
"03/12/08","11:02:02",22376.000,"cc",28292.803,6.00,6,0.100,21006.000,0.200,998.000,0.300,304.000,0.500,64.000,1.000,4.000,5.000,0
"03/12/08","11:02:08",22485.000,"cc",28304.287,6.00,6,0.100,21212.000,0.200,969.000,0.300,258.000,0.500,43.000,1.000,3.000,5.000,0
"03/12/08","11:02:14",22402.000,"cc",28339.000,6.00,6,0.100,21023.000,0.200,1036.000,0.300,291.000,0.500,51.000,1.000,1.000,5.000,0
"03/12/08","11:02:20",22818.000,"cc",28309.838,6.00,6,0.100,21103.000,0.200,1123.000,0.300,446.000,0.500,136.000,1.000,10.000,5.000,0
"03/12/08","11:02:26",22732.000,"cc",28283.397,6.00,6,0.100,21338.000,0.200,1042.000,0.300,314.000,0.500,37.000,1.000,1.000,5.000,0
"03/12/08","11:02:32",22350.000,"cc",28363.961,6.00,6,0.100,21072.000,0.200,961.000,0.300,280.000,0.500,37.000,1.000,0,5.000,0
"03/12/08","11:02:38",22160.000,"cc",28274.012,6.00,6,0.100,20814.000,0.200,998.000,0.300,312.000,0.500,36.000,1.000,0,5.000,0
"03/12/08","11:02:44",22622.000,"cc",28297.139,6.00,6,0.100,21244.000,0.200,1022.000,0.300,311.000,0.500,44.000,1.000,1.000,5.000,0
"03/12/08","11:02:50",22574.000,"cc",28327.936,6.00,6,0.100,21140.000,0.200,1034.000,0.300,347.000,0.500,49.000,1.000,4.000,5.000,0
"03/12/08","11:02:56",22373.000,"cc",28313.691,6.00,6,0.100,21010.000,0.200,1004.000,0.300,311.000,0.500,47.000,1.000,1.000,5.000,0
"03/12/08","11:03:02",22712.000,"cc",28327.440,6.00,6,0.100,21400.000,0.200,1037.000,0.300,253.000,0.500,22.000,1.000,0,5.000,0
"03/12/08","11:03:08",22764.000,"cc",28351.221,6.00,6,0.100,21377.000,0.200,1091.000,0.300,263.000,0.500,33.000,1.000,0,5.000,0
"03/12/08","11:03:14",22670.000,"cc",28308.734,6.00,6,0.100,21270.000,0.200,1043.000,0.300,310.000,0.500,46.000,1.000,1.000,5.000,0
"03/12/08","11:03:20",22721.000,"cc",28253.397,6.00,6,0.100,21300.000,0.200,1051.000,0.300,319.000,0.500,49.000,1.000,2.000,5.000,0
"03/12/08","11:03:26",22771.000,"cc",28330.449,6.00,6,0.100,21289.000,0.200,1079.000,0.300,334.000,0.500,68.000,1.000,1.000,5.000,0
"03/12/08","11:03:32",22735.000,"cc",28375.729,6.00,6,0.100,21376.000,0.200,1051.000,0.300,274.000,0.500,32.000,1.000,2.000,5.000,0
"03/12/08","11:03:38",22828.000,"cc",28246.932,6.00,6,0.100,21435.000,0.200,982.000,0.300,340.000,0.500,71.000,1.000,0,5.000,0
"03/12/08","11:03:44",22602.000,"cc",28319.193,6.00,6,0.100,21290.000,0.200,1027.000,0.300,247.000,0.500,38.000,1.000,0,5.000,0
"03/12/08","11:03:50",22597.000,"cc",28370.162,6.00,6,0.100,21243.000,0.200,1007.000,0.300,306.000,0.500,39.000,1.000,2.000,5.000,0
"03/12/08","11:03:56",22536.000,"cc",28279.922,6.00,6,0.100,21267.000,0.200,956.000,0.300,266.000,0.500,46.000,1.000,1.000,5.000,0
"03/12/08","11:04:02",22888.000,"cc",28272.615,6.00,6,0.100,21450.000,0.200,1062.000,0.300,315.000,0.500,60.000,1.000,1.000,5.000,0
"03/12/08","11:04:08",22763.000,"cc",28304.561,6.00,6,0.100,21353.000,0.200,997.000,0.300,350.000,0.500,63.000,1.000,0,5.000,0
"03/12/08","11:04:14",22837.000,"cc",28371.324,6.00,6,0.100,21377.000,0.200,1097.000,0.300,321.000,0.500,42.000,1.000,0,5.000,0
"03/12/08","11:04:20",22856.000,"cc",28294.170,6.00,6,0.100,21461.000,0.200,1038.000,0.300,318.000,0.500,38.000,1.000,1.000,5.000,0
"03/12/08","11:04:26",22680.000,"cc",28345.131,6.00,6,0.100,21250.000,0.200,1037.000,0.300,342.000,0.500,51.000,1.000,0,5.000,0
"03/12/08","11:04:32",23470.000,"cc",28301.033,6.00,6,0.100,21969.000,0.200,1080.000,0.300,376.000,0.500,45.000,1.000,0,5.000,0
"03/12/08","11:04:38",22794.000,"cc",28330.602,6.00,6,0.100,21314.000,0.200,1050.000,0.300,361.000,0.500,67.000,1.000,2.000,5.000,0
"03/12/08","11:04:44",23058.000,"cc",28381.023,6.00,6,0.100,21520.000,0.200,1087.000,0.300,367.000,0.500,83.000,1.000,1.000,5.000,0
"03/12/08","11:04:50",23084.000,"cc",28264.531,6.00,6,0.100,21645.000,0.200,1013.000,0.300,356.000,0.500,69.000,1.000,1.000,5.000,0
"03/12/08","11:04:56",22866.000,"cc",28283.299,6.00,6,0.100,21331.000,0.200,1104.000,0.300,377.000,0.500,54.000,1.000,0,5.000,0
"03/12/08","11:05:02",22434.000,"cc",28356.240,6.00,6,0.100,21006.000,0.200,1050.000,0.300,317.000,0.500,61.000,1.000,0,5.000,0
"03/12/08","11:05:08",23099.000,"cc",28317.699,6.00,6,0.100,21494.000,0.200,1112.000,0.300,399.000,0.500,92.000,1.000,2.000,5.000,0
"03/12/08","11:05:14",22845.000,"cc",28309.246,6.00,6,0.100,21364.000,0.200,1058.000,0.300,349.000,0.500,74.000,1.000,0,5.000,0
"03/12/08","11:05:20",23133.000,"cc",28317.234,6.00,6,0.100,21617.000,0.200,1088.000,0.300,364.000,0.500,61.000,1.000,3.000,5.000,0
"03/12/08","11:05:26",23071.000,"cc",28343.203,6.00,6,0.100,21491.000,0.200,1093.000,0.300,396.000,0.500,87.000,1.000,4.000,5.000,0
"03/12/08","11:05:32",23011.000,"cc",28262.918,6.00,6,0.100,21544.000,0.200,1085.000,0.300,322.000,0.500,60.000,1.000,0,5.000,0
"03/12/08","11:05:38",22869.000,"cc",28313.990,6.00,6,0.100,21426.000,0.200,1047.000,0.300,348.000,0.500,48.000,1.000,0,5.000,0
"03/12/08","11:05:44",23090.000,"cc",28343.717,6.00,6,0.100,21638.000,0.200,1044.000,0.300,351.000,0.500,54.000,1.000,3.000,5.000,0
"03/12/08","11:05:50",22980.000,"cc",28390.691,6.00,6,0.100,21624.000,0.200,1051.000,0.300,276.000,0.500,29.000,1.000,0,5.000,0
"03/12/08","11:05:56",23200.000,"cc",28284.920,6.00,6,0.100,21801.000,0.200,1038.000,0.300,308.000,0.500,52.000,1.000,1.000,5.000,0
"03/12/08","11:06:02",22982.000,"cc",28313.584,6.00,6,0.100,21525.000,0.200,1058.000,0.300,352.000,0.500,47.000,1.000,0,5.000,0
"03/12/08","11:06:08",23170.000,"cc",28319.135,6.00,6,0.100,21762.000,0.200,1024.000,0.300,333.000,0.500,51.000,1.000,0,5.000,0
"03/12/08","11:06:14",23077.000,"cc",28323.113,6.00,6,0.100,21461.000,0.200,1110.000,0.300,396.000,0.500,105.000,1.000,5.000,5.000,0
"03/12/08","11:06:20",23045.000,"cc",28296.121,6.00,6,0.100,21583.000,0.200,994.000,0.300,361.000,0.500,104.000,1.000,3.000,5.000,0
"03/12/08","11:06:26",23496.000,"cc",28239.508,6.00,6,0.100,21902.000,0.200,1117.000,0.300,389.000,0.500,87.000,1.000,1.000,5.000,0
"03/12/08","11:06:32",23384.000,"cc",28296.014,6.00,6,0.100,21693.000,0.200,1106.000,0.300,433.000,0.500,141.000,1.000,11.000,5.000,0
"03/12/08","11:06:38",23203.000,"cc",28366.561,6.00,6,0.100,21726.000,0.200,1057.000,0.300,365.000,0.500,54.000,1.000,1.000,5.000,0
"03/12/08","11:06:44",23186.000,"cc",28311.068,6.00,6,0.100,21679.000,0.200,1077.000,0.300,338.000,0.500,87.000,1.000,5.000,5.000,0
"03/12/08","11:06:50",23320.000,"cc",28326.879,6.00,6,0.100,21765.000,0.200,1138.000,0.300,345.000,0.500,70.000,1.000,2.000,5.000,0
"03/12/08","11:06:56",23155.000,"cc",28343.231,6.00,6,0.100,21717.000,0.200,1059.000,0.300,338.000,0.500,41.000,1.000,0,5.000,0
"03/12/08","11:07:02",23441.000,"cc",28315.846,6.00,6,0.100,21881.000,0.200,1126.000,0.300,382.000,0.500,50.000,1.000,2.000,5.000,0
"03/12/08","11:07:08",23039.000,"cc",28309.301,6.00,6,0.100,21605.000,0.200,1109.000,0.300,286.000,0.500,38.000,1.000,1.000,5.000,0
"03/12/08","11:07:14",23712.000,"cc",28313.318,6.00,6,0.100,22107.000,0.200,1133.000,0.300,382.000,0.500,90.000,1.000,0,5.000,0
"03/12/08","11:07:20",23003.000,"cc",28388.178,6.00,6,0.100,21485.000,0.200,1078.000,0.300,347.000,0.500,87.000,1.000,6.000,5.000,0
"03/12/08","11:07:26",23520.000,"cc",28293.152,6.00,6,0.100,22070.000,0.200,1057.000,0.300,339.000,0.500,53.000,1.000,1.000,5.000,0
"03/12/08","11:07:32",23355.000,"cc",28340.867,6.00,6,0.100,21799.000,0.200,1178.000,0.300,327.000,0.500,51.000,1.000,0,5.000,0
"03/12/08","11:07:38",23344.000,"cc",28256.441,6.00,6,0.100,21879.000,0.200,1070.000,0.300,346.000,0.500,48.000,1.000,1.000,5.000,0
"03/12/08","11:07:44",23363.000,"cc",28309.141,6.00,6,0.100,21898.000,0.200,1038.000,0.300,364.000,0.500,61.000,1.000,2.000,5.000,0
"03/12/08","11:07:50",23724.000,"cc",28355.479,6.00,6,0.100,22132.000,0.200,1132.000,0.300,394.000,0.500,66.000,1.000,0,5.000,0
"03/12/08","11:07:56",23143.000,"cc",28303.648,6.00,6,0.100,21688.000,0.200,1063.000,0.300,347.000,0.500,45.000,1.000,0,5.000,0
"03/12/08","11:08:02",23572.000,"cc",28333.594,6.00,6,0.100,22098.000,0.200,1117.000,0.300,314.000,0.500,42.000,1.000,1.000,5.000,0
"03/12/08","11:08:08",23644.000,"cc",28276.207,6.00,6,0.100,21913.000,0.200,1185.000,0.300,428.000,0.500,113.000,1.000,5.000,5.000,0
"03/12/08","11:08:14",23624.000,"cc",28407.109,6.00,6,0.100,21874.000,0.200,1206.000,0.300,445.000,0.500,93.000,1.000,6.000,5.000,0
"03/12/08","11:08:20",23441.000,"cc",28283.119,6.00,6,0.100,21849.000,0.200,1110.000,0.300,402.000,0.500,80.000,1.000,0,5.000,0
"03/12/08","11:08:26",23551.000,"cc",28258.979,6.00,6,0.100,22047.000,0.200,1095.000,0.300,347.000,0.500,61.000,1.000,1.000,5.000,0
"03/12/08","11:08:32",23811.000,"cc",28299.242,6.00,6,0.100,22193.000,0.200,1152.000,0.300,412.000,0.500,53.000,1.000,1.000,5.000,0
"03/12/08","11:08:38",23538.000,"cc",28351.471,6.00,6,0.100,22007.000,0.200,1104.000,0.300,370.000,0.500,57.000,1.000,0,5.000,0
"03/12/08","11:08:44",23439.000,"cc",28329.506,6.00,6,0.100,21794.000,0.200,1149.000,0.300,398.000,0.500,95.000,1.000,3.000,5.000,0
"03/12/08","11:08:50",23515.000,"cc",28359.389,6.00,6,0.100,21903.000,0.200,1155.000,0.300,392.000,0.500,64.000,1.000,1.000,5.000,0
"03/12/08","11:08:56",23470.000,"cc",28330.268,6.00,6,0.100,21764.000,0.200,1143.000,0.300,447.000,0.500,111.000,1.000,5.000,5.000,0
"03/12/08","11:09:02",23762.000,"cc",28253.510,6.00,6,0.100,22068.000,0.200,1169.000,0.300,448.000,0.500,75.000,1.000,2.000,5.000,0
"03/12/08","11:09:08",23641.000,"cc",28323.580,6.00,6,0.100,22021.000,0.200,1112.000,0.300,435.000,0.500,71.000,1.000,2.000,5.000,0
"03/12/08","11:09:14",23809.000,"cc",28310.674,6.00,6,0.100,22133.000,0.200,1138.000,0.300,446.000,0.500,88.000,1.000,4.000,5.000,0
"03/12/08","11:09:20",24054.000,"cc",28301.973,6.00,6,0.100,22347.000,0.200,1160.000,0.300,440.000,0.500,107.000,1.000,0,5.000,0
"03/12/08","11:09:26",23534.000,"cc",28368.340,6.00,6,0.100,21892.000,0.200,1162.000,0.300,387.000,0.500,92.000,1.000,1.000,5.000,0
"03/12/08","11:09:32",23720.000,"cc",28268.969,6.00,6,0.100,21936.000,0.200,1205.000,0.300,462.000,0.500,115.000,1.000,2.000,5.000,0
"03/12/08","11:09:38",24031.000,"cc",28309.246,6.00,6,0.100,22372.000,0.200,1177.000,0.300,412.000,0.500,69.000,1.000,1.000,5.000,0
"03/12/08","11:09:44",23572.000,"cc",28345.586,6.00,6,0.100,21926.000,0.200,1145.000,0.300,420.000,0.500,80.000,1.000,1.000,5.000,0
"03/12/08","11:09:50",23957.000,"cc",28354.082,6.00,6,0.100,22154.000,0.200,1200.000,0.300,487.000,0.500,113.000,1.000,3.000,5.000,0
"03/12/08","11:09:56",24214.000,"cc",28334.854,6.00,6,0.100,22379.000,0.200,1203.000,0.300,470.000,0.500,157.000,1.000,5.000,5.000,0
"03/12/08","11:10:02",24134.000,"cc",28262.725,6.00,6,0.100,22303.000,0.200,1195.000,0.300,487.000,0.500,144.000,1.000,5.000,5.000,0
"03/12/08","11:10:08",24112.000,"cc",28352.266,6.00,6,0.100,22325.000,0.200,1261.000,0.300,441.000,0.500,84.000,1.000,1.000,5.000,0
"03/12/08","11:10:14",24194.000,"cc",28302.182,6.00,6,0.100,22410.000,0.200,1133.000,0.300,512.000,0.500,136.000,1.000,3.000,5.000,0
"03/12/08","11:10:20",24227.000,"cc",28274.346,6.00,6,0.100,22394.000,0.200,1203.000,0.300,495.000,0.500,131.000,1.000,4.000,5.000,0
"03/12/08","11:10:26",24211.000,"cc",28361.303,6.00,6,0.100,22371.000,0.200,1170.000,0.300,511.000,0.500,151.000,1.000,8.000,5.000,0
"03/12/08","11:10:32",24250.000,"cc",28331.023,6.00,6,0.100,22410.000,0.200,1244.000,0.300,440.000,0.500,149.000,1.000,7.000,5.000,0
"03/12/08","11:10:38",24240.000,"cc",28263.184,6.00,6,0.100,22448.000,0.200,1148.000,0.300,506.000,0.500,133.000,1.000,5.000,5.000,0
"03/12/08","11:10:44",24118.000,"cc",28340.984,6.00,6,0.100,22272.000,0.200,1231.000,0.300,493.000,0.500,121.000,1.000,1.000,5.000,0
"03/12/08","11:10:50",24535.000,"cc",28316.264,6.00,6,0.100,22523.000,0.200,1263.000,0.300,575.000,0.500,170.000,1.000,4.000,5.000,0
"03/12/08","11:10:56",24231.000,"cc",28310.336,6.00,6,0.100,22399.000,0.200,1265.000,0.300,468.000,0.500,98.000,1.000,1.000,5.000,0
"03/12/08","11:11:02",24734.000,"cc",28266.465,6.00,6,0.100,22710.000,0.200,1248.000,0.300,541.000,0.500,221.000,1.000,14.000,5.000,0
"03/12/08","11:11:08",24251.000,"cc",28336.377,6.00,6,0.100,22339.000,0.200,1251.000,0.300,526.000,0.500,133.000,1.000,2.000,5.000,0
"03/12/08","11:11:14",24486.000,"cc",28318.242,6.00,6,0.100,22569.000,0.200,1290.000,0.300,503.000,0.500,124.000,1.000,0,5.000,0
"03/12/08","11:11:20",24341.000,"cc",28323.656,6.00,6,0.100,22456.000,0.200,1225.000,0.300,495.000,0.500,156.000,1.000,9.000,5.000,0
"03/12/08","11:11:26",24855.000,"cc",28279.178,6.00,6,0.100,22725.000,0.200,1296.000,0.300,564.000,0.500,250.000,1.000,20.000,5.000,0
"03/12/08","11:11:32",24480.000,"cc",28345.934,6.00,6,0.100,22556.000,0.200,1265.000,0.300,506.000,0.500,151.000,1.000,2.000,5.000,0
"03/12/08","11:11:38",24726.000,"cc",28342.565,6.00,6,0.100,22720.000,0.200,1285.000,0.300,510.000,0.500,206.000,1.000,5.000,5.000,0
"03/12/08","11:11:44",24647.000,"cc",28317.320,6.00,6,0.100,22684.000,0.200,1257.000,0.300,543.000,0.500,160.000,1.000,3.000,5.000,0
"03/12/08","11:11:50",24849.000,"cc",28311.150,6.00,6,0.100,22736.000,0.200,1352.000,0.300,575.000,0.500,180.000,1.000,6.000,5.000,0
"03/12/08","11:11:56",25029.000,"cc",28306.664,6.00,6,0.100,22973.000,0.200,1281.000,0.300,606.000,0.500,165.000,1.000,4.000,5.000,0
"03/12/08","11:12:02",24996.000,"cc",28364.910,6.00,6,0.100,23000.000,0.200,1267.000,0.300,562.000,0.500,163.000,1.000,4.000,5.000,0
"03/12/08","11:12:08",25042.000,"cc",28334.361,6.00,6,0.100,23030.000,0.200,1325.000,0.300,523.000,0.500,160.000,1.000,4.000,5.000,0
"03/12/08","11:12:14",24967.000,"cc",28253.463,6.00,6,0.100,22898.000,0.200,1292.000,0.300,589.000,0.500,180.000,1.000,8.000,5.000,0
"03/12/08","11:12:20",24885.000,"cc",28304.633,6.00,6,0.100,22825.000,0.200,1283.000,0.300,555.000,0.500,220.000,1.000,2.000,5.000,0
"03/12/08","11:12:26",25177.000,"cc",28267.945,6.00,6,0.100,23049.000,0.200,1321.000,0.300,594.000,0.500,204.000,1.000,9.000,5.000,0
"03/12/08","11:12:32",25305.000,"cc",28389.205,6.00,6,0.100,23132.000,0.200,1335.000,0.300,622.000,0.500,214.000,1.000,2.000,5.000,0
"03/12/08","11:12:38",25016.000,"cc",28307.654,6.00,6,0.100,22737.000,0.200,1284.000,0.300,707.000,0.500,271.000,1.000,17.000,5.000,0
"03/12/08","11:12:44",25072.000,"cc",28329.596,6.00,6,0.100,22730.000,0.200,1382.000,0.300,637.000,0.500,302.000,1.000,21.000,5.000,0
"03/12/08","11:12:50",25065.000,"cc",28315.879,6.00,6,0.100,22896.000,0.200,1303.000,0.300,614.000,0.500,240.000,1.000,12.000,5.000,0
"03/12/08","11:12:56",25506.000,"cc",28314.604,6.00,6,0.100,23272.000,0.200,1325.000,0.300,633.000,0.500,271.000,1.000,5.000,5.000,0
"03/12/08","11:13:02",25461.000,"cc",28358.783,6.00,6,0.100,23224.000,0.200,1286.000,0.300,675.000,0.500,260.000,1.000,16.000,5.000,0
"03/12/08","11:13:08",25352.000,"cc",28290.453,6.00,6,0.100,23121.000,0.200,1335.000,0.300,623.000,0.500,265.000,1.000,8.000,5.000,0
"03/12/08","11:13:14",25568.000,"cc",28302.383,6.00,6,0.100,23165.000,0.200,1384.000,0.300,717.000,0.500,284.000,1.000,18.000,5.000,0
"03/12/08","11:13:20",25751.000,"cc",28345.418,6.00,6,0.100,23326.000,0.200,1356.000,0.300,705.000,0.500,353.000,1.000,11.000,5.000,0
"03/12/08","11:13:26",25719.000,"cc",28345.219,6.00,6,0.100,23335.000,0.200,1392.000,0.300,678.000,0.500,306.000,1.000,8.000,5.000,0
"03/12/08","11:13:32",25498.000,"cc",28230.152,6.00,6,0.100,23156.000,0.200,1394.000,0.300,671.000,0.500,267.000,1.000,10.000,5.000,0
"03/12/08","11:13:38",25879.000,"cc",28313.676,6.00,6,0.100,23435.000,0.200,1355.000,0.300,716.000,0.500,355.000,1.000,18.000,5.000,0
"03/12/08","11:13:44",25849.000,"cc",28408.600,6.00,6,0.100,23251.000,0.200,1384.000,0.300,762.000,0.500,427.000,1.000,25.000,5.000,0
"03/12/08","11:13:50",25712.000,"cc",28287.344,6.00,6,0.100,23082.000,0.200,1423.000,0.300,752.000,0.500,436.000,1.000,19.000,5.000,0
"03/12/08","11:13:56",26048.000,"cc",28293.686,6.00,6,0.100,23390.000,0.200,1367.000,0.300,787.000,0.500,475.000,1.000,29.000,5.000,0
"03/12/08","11:14:02",26318.000,"cc",28287.129,6.00,6,0.100,23585.000,0.200,1467.000,0.300,770.000,0.500,468.000,1.000,28.000,5.000,0
"03/12/08","11:14:08",26330.000,"cc",28321.111,6.00,6,0.100,23537.000,0.200,1382.000,0.300,775.000,0.500,596.000,1.000,40.000,5.000,0
"03/12/08","11:14:14",26297.000,"cc",28357.637,6.00,6,0.100,23377.000,0.200,1521.000,0.300,809.000,0.500,539.000,1.000,51.000,5.000,0
"03/12/08","11:14:20",26309.000,"cc",28327.617,6.00,6,0.100,23182.000,0.200,1510.000,0.300,835.000,0.500,686.000,1.000,96.000,5.000,0
"03/12/08","11:14:26",26766.000,"cc",28311.363,6.00,6,0.100,23593.000,0.200,1531.000,0.300,849.000,0.500,699.000,1.000,94.000,5.000,0
"03/12/08","11:14:32",26767.000,"cc",28317.250,6.00,6,0.100,23742.000,0.200,1469.000,0.300,851.000,0.500,648.000,1.000,57.000,5.000,0
"03/12/08","11:14:38",26809.000,"cc",28275.545,6.00,6,0.100,23715.000,0.200,1492.000,0.300,838.000,0.500,681.000,1.000,83.000,5.000,0
"03/12/08","11:14:44",26830.000,"cc",28336.180,6.00,6,0.100,23656.000,0.200,1490.000,0.300,850.000,0.500,739.000,1.000,95.000,5.000,0
"03/12/08","11:14:50",27499.000,"cc",28323.764,6.00,6,0.100,24295.000,0.200,1474.000,0.300,864.000,0.500,771.000,1.000,95.000,5.000,0
"03/12/08","11:14:56",26918.000,"cc",28282.578,6.00,6,0.100,23734.000,0.200,1469.000,0.300,922.000,0.500,712.000,1.000,81.000,5.000,0
"03/12/08","11:15:02",26932.000,"cc",28291.229,6.00,6,0.100,23588.000,0.200,1509.000,0.300,918.000,0.500,812.000,1.000,105.000,5.000,0
"03/12/08","11:15:08",27115.000,"cc",28418.395,6.00,6,0.100,23889.000,0.200,1423.000,0.300,825.000,0.500,846.000,1.000,132.000,5.000,0
"03/12/08","11:15:14",27365.000,"cc",28315.395,6.00,6,0.100,24118.000,0.200,1414.000,0.300,823.000,0.500,858.000,1.000,152.000,5.000,0
"03/12/08","11:15:20",27256.000,"cc",28214.043,6.00,6,0.100,23929.000,0.200,1503.000,0.300,855.000,0.500,849.000,1.000,120.000,5.000,0
"03/12/08","11:15:26",27593.000,"cc",28304.356,6.00,6,0.100,24151.000,0.200,1503.000,0.300,936.000,0.500,860.000,1.000,143.000,5.000,0
"03/12/08","11:15:32",27925.000,"cc",28361.088,6.00,6,0.100,24397.000,0.200,1539.000,0.300,962.000,0.500,861.000,1.000,166.000,5.000,0
"03/12/08","11:15:38",27666.000,"cc",28327.879,6.00,6,0.100,24145.000,0.200,1585.000,0.300,892.000,0.500,886.000,1.000,158.000,5.000,0
"03/12/08","11:15:44",27758.000,"cc",28325.522,6.00,6,0.100,24250.000,0.200,1520.000,0.300,876.000,0.500,929.000,1.000,183.000,5.000,0
"03/12/08","11:15:50",27737.000,"cc",28329.578,6.00,6,0.100,24242.000,0.200,1534.000,0.300,897.000,0.500,871.000,1.000,193.000,5.000,0
"03/12/08","11:15:56",28091.000,"cc",28328.959,6.00,6,0.100,24469.000,0.200,1548.000,0.300,931.000,0.500,939.000,1.000,204.000,5.000,0
"03/12/08","11:16:02",27693.000,"cc",28314.975,6.00,6,0.100,24107.000,0.200,1520.000,0.300,882.000,0.500,979.000,1.000,205.000,5.000,0
"03/12/08","11:16:08",27936.000,"cc",28340.201,6.00,6,0.100,24343.000,0.200,1484.000,0.300,945.000,0.500,945.000,1.000,219.000,5.000,0
"03/12/08","11:16:14",27573.000,"cc",28256.844,6.00,6,0.100,24030.000,0.200,1588.000,0.300,858.000,0.500,896.000,1.000,201.000,5.000,0
"03/12/08","11:16:20",28356.000,"cc",28293.904,6.00,6,0.100,24596.000,0.200,1569.000,0.300,982.000,0.500,999.000,1.000,210.000,5.000,0
"03/12/08","11:16:26",27695.000,"cc",28343.008,6.00,6,0.100,24012.000,0.200,1513.000,0.300,928.000,0.500,995.000,1.000,247.000,5.000,0
"03/12/08","11:16:32",27850.000,"cc",28312.256,6.00,6,0.100,24196.000,0.200,1559.000,0.300,871.000,0.500,994.000,1.000,230.000,5.000,0
"03/12/08","11:16:38",28108.000,"cc",28339.490,6.00,6,0.100,24425.000,0.200,1528.000,0.300,892.000,0.500,1046.000,1.000,217.000,5.000,0
"03/12/08","11:16:44",28344.000,"cc",28285.846,6.00,6,0.100,24681.000,0.200,1496.000,0.300,948.000,0.500,1002.000,1.000,217.000,5.000,0
"03/12/08","11:16:50",28167.000,"cc",28342.387,6.00,6,0.100,24474.000,0.200,1587.000,0.300,871.000,0.500,985.000,1.000,250.000,5.000,0
"03/12/08","11:16:56",28408.000,"cc",28365.955,6.00,6,0.100,24562.000,0.200,1552.000,0.300,936.000,0.500,1089.000,1.000,269.000,5.000,0
"03/12/08","11:17:02",28089.000,"cc",28289.912,6.00,6,0.100,24423.000,0.200,1505.000,0.300,903.000,0.500,990.000,1.000,268.000,5.000,0